Total_Precipitation_Accumulation
0.41 0.41 0.38 0.33 0.30 0.28 0.29 0.29 0.29 0.28 0.29 0.33 0.37 0.38 0.38 0.37 0.34 0.31 0.31 0.31 0.33 0.34 0.33 0.36 0.35 0.29 0.29 0.28 0.26 0.27 0.26 0.24 0.20 0.18 0.18 0.17 0.20 0.29 0.26 0.20 0.15 0.14 0.12
0.58 0.63 0.69 0.66 0.60 0.51 0.38 0.33 0.34 0.37 0.36 0.36 0.39 0.39 0.38 0.39 0.42 0.41 0.36 0.37 0.36 0.34 0.31 0.30 0.25 0.18 0.16 0.12 0.12 0.12 0.13 0.16 0.17 0.17 0.19 0.20 0.24 0.29 0.31 0.25 0.20 0.17 0.18
0.83 0.98 1.09 1.06 0.88 0.65 0.46 0.38 0.38 0.40 0.41 0.42 0.44 0.50 0.51 0.51 0.48 0.49 0.45 0.39 0.31 0.24 0.19 0.15 0.12 0.09 0.07 0.05 0.04 0.03 0.03 0.05 0.13 0.19 0.23 0.23 0.23 0.23 0.26 0.28 0.27 0.30 0.26
0.68 0.86 1.00 1.05 0.86 0.63 0.49 0.41 0.34 0.31 0.32 0.36 0.42 0.50 0.56 0.57 0.58 0.53 0.41 0.30 0.21 0.15 0.10 0.06 0.04 0.02 0.01 0.01 0.01 0.01 0.02 0.06 0.12 0.17 0.21 0.21 0.21 0.18 0.23 0.30 0.34 0.41 0.36
0.36 0.52 0.68 0.77 0.62 0.40 0.29 0.23 0.19 0.22 0.29 0.35 0.40 0.46 0.54 0.58 0.55 0.48 0.33 0.21 0.14 0.08 0.04 0.02 0.01 0.00 0.00 0.00 0.00 0.00 0.02 0.04 0.05 0.07 0.09 0.09 0.09 0.11 0.13 0.21 0.34 0.47 0.44
0.27 0.33 0.43 0.47 0.38 0.24 0.11 0.06 0.09 0.14 0.18 0.23 0.26 0.28 0.28 0.31 0.34 0.27 0.17 0.10 0.05 0.03 0.01 0.00 0.00 0.00 0.00 0.00 0.00 0.00 0.00 0.01 0.02 0.04 0.02 0.02 0.04 0.07 0.10 0.21 0.35 0.43 0.52
0.31 0.30 0.35 0.37 0.31 0.18 0.07 0.04 0.05 0.07 0.09 0.10 0.10 0.10 0.10 0.10 0.09 0.06 0.05 0.04 0.02 0.01 0.00 0.00 0.00 0.00 0.00 0.00 0.00 0.00 0.00 0.00 0.00 0.02 0.01 0.01 0.01 0.05 0.10 0.21 0.36 0.53 0.66
0.26 0.25 0.31 0.35 0.31 0.21 0.13 0.08 0.06 0.05 0.06 0.06 0.05 0.03 0.03 0.03 0.02 0.02 0.01 0.01 0.00 0.00 0.00 0.00 0.00 0.00 0.00 0.00 0.00 0.00 0.00 0.00 0.00 0.00 0.00 0.00 0.00 0.02 0.06 0.11 0.20 0.36 0.56
0.22 0.24 0.26 0.30 0.29 0.22 0.18 0.14 0.10 0.07 0.06 0.05 0.03 0.01 0.00 0.00 0.00 0.00 0.00 0.00 0.00 0.00 0.00 0.00 0.00 0.00 0.00 0.00 0.00 0.00 0.00 0.00 0.00 0.00 0.00 0.00 0.00 0.00 0.01 0.02 0.03 0.05 0.15
0.21 0.21 0.23 0.28 0.29 0.22 0.17 0.14 0.10 0.09 0.06 0.04 0.02 0.01 0.00 0.00 0.00 0.00 0.00 0.00 0.00 0.00 0.00 0.00 0.00 0.00 0.00 0.00 0.00 0.00 0.00 0.00 0.00 0.00 0.00 0.00 0.00 0.00 0.00 0.00 0.01 0.02 0.04
0.18 0.19 0.23 0.30 0.29 0.25 0.21 0.17 0.12 0.07 0.05 0.06 0.04 0.03 0.01 0.00 0.00 0.00 0.00 0.01 0.00 0.00 0.00 0.00 0.00 0.00 0.00 0.00 0.00 0.00 0.00 0.00 0.00 0.00 0.00 0.00 0.00 0.00 0.00 0.00 0.01 0.02 0.05
0.18 0.21 0.28 0.28 0.20 0.16 0.19 0.18 0.13 0.08 0.06 0.06 0.05 0.04 0.01 0.00 0.00 0.00 0.00 0.00 0.00 0.00 0.00 0.00 0.00 0.00 0.00 0.00 0.00 0.00 0.00 0.00 0.00 0.00 0.00 0.00 0.00 0.00 0.00 0.00 0.00 0.02 0.04
0.22 0.25 0.28 0.26 0.23 0.23 0.18 0.14 0.10 0.08 0.05 0.02 0.02 0.02 0.01 0.00 0.00 0.00 0.00 0.00 0.00 0.00 0.00 0.00 0.00 0.00 0.00 0.00 0.00 0.00 0.00 0.00 0.00 0.00 0.00 0.00 0.00 0.00 0.00 0.00 0.00 0.01 0.03
0.24 0.24 0.25 0.25 0.23 0.23 0.23 0.17 0.10 0.08 0.06 0.03 0.02 0.02 0.01 0.01 0.00 0.00 0.00 0.00 0.00 0.00 0.00 0.00 0.00 0.00 0.00 0.00 0.00 0.00 0.00 0.00 0.00 0.00 0.00 0.00 0.00 0.00 0.00 0.00 0.00 0.00 0.01
0.32 0.27 0.24 0.21 0.19 0.22 0.20 0.20 0.15 0.14 0.06 0.04 0.03 0.01 0.01 0.02 0.00 0.00 0.00 0.00 0.00 0.00 0.00 0.00 0.00 0.00 0.00 0.00 0.00 0.00 0.00 0.00 0.00 0.00 0.00 0.00 0.00 0.00 0.00 0.00 0.00 0.00 0.00
0.41 0.38 0.31 0.23 0.20 0.18 0.18 0.10 0.04 0.05 0.01 0.01 0.01 0.01 0.00 0.00 0.00 0.00 0.00 0.00 0.00 0.00 0.00 0.00 0.00 0.00 0.00 0.00 0.00 0.00 0.00 0.00 0.00 0.00 0.00 0.00 0.00 0.00 0.00 0.00 0.00 0.00 0.00
0.49 0.48 0.42 0.29 0.20 0.15 0.14 0.10 0.04 0.01 0.00 0.00 0.00 0.00 0.00 0.00 0.00 0.00 0.00 0.00 0.00 0.00 0.00 0.00 0.00 0.00 0.00 0.00 0.00 0.00 0.00 0.00 0.00 0.00 0.00 0.00 0.00 0.00 0.00 0.00 0.00 0.00 0.00
0.53 0.52 0.47 0.36 0.21 0.14 0.10 0.07 0.07 0.04 0.01 0.00 0.00 0.00 0.00 0.00 0.00 0.00 0.00 0.00 0.00 0.00 0.00 0.00 0.00 0.00 0.00 0.00 0.00 0.00 0.00 0.00 0.00 0.00 0.00 0.00 0.00 0.00 0.00 0.00 0.00 0.00 0.00
0.50 0.49 0.45 0.38 0.27 0.18 0.12 0.06 0.05 0.05 0.03 0.01 0.00 0.00 0.00 0.00 0.00 0.00 0.00 0.00 0.00 0.00 0.00 0.00 0.00 0.00 0.00 0.00 0.00 0.00 0.00 0.00 0.00 0.00 0.00 0.00 0.00 0.00 0.00 0.00 0.00 0.00 0.00
0.50 0.45 0.40 0.35 0.27 0.21 0.16 0.07 0.03 0.04 0.04 0.03 0.01 0.00 0.00 0.00 0.00 0.00 0.00 0.00 0.00 0.00 0.00 0.00 0.00 0.00 0.00 0.00 0.00 0.00 0.00 0.00 0.00 0.00 0.00 0.00 0.00 0.00 0.00 0.00 0.00 0.00 0.00
0.49 0.42 0.35 0.31 0.25 0.21 0.17 0.09 0.03 0.02 0.02 0.02 0.01 0.00 0.00 0.00 0.00 0.00 0.00 0.00 0.00 0.00 0.00 0.00 0.00 0.00 0.00 0.00 0.00 0.00 0.00 0.00 0.00 0.00 0.00 0.00 0.00 0.00 0.00 0.00 0.00 0.00 0.00
0.51 0.46 0.34 0.25 0.21 0.20 0.18 0.11 0.05 0.02 0.01 0.01 0.01 0.00 0.00 0.00 0.00 0.00 0.00 0.00 0.00 0.00 0.00 0.00 0.00 0.00 0.00 0.00 0.00 0.00 0.00 0.00 0.00 0.00 0.00 0.00 0.00 0.00 0.00 0.00 0.00 0.00 0.00
0.46 0.45 0.35 0.22 0.16 0.16 0.16 0.12 0.06 0.02 0.01 0.01 0.00 0.00 0.00 0.00 0.00 0.00 0.00 0.00 0.00 0.00 0.00 0.00 0.00 0.00 0.00 0.00 0.00 0.00 0.00 0.00 0.00 0.00 0.00 0.00 0.00 0.00 0.00 0.00 0.00 0.00 0.00
0.40 0.40 0.37 0.22 0.13 0.13 0.12 0.09 0.05 0.02 0.01 0.00 0.00 0.00 0.00 0.00 0.00 0.00 0.00 0.00 0.00 0.00 0.00 0.00 0.00 0.00 0.00 0.00 0.00 0.00 0.00 0.00 0.00 0.00 0.00 0.00 0.00 0.00 0.00 0.00 0.00 0.00 0.00
0.37 0.35 0.36 0.23 0.11 0.09 0.09 0.07 0.04 0.02 0.01 0.01 0.00 0.00 0.00 0.00 0.00 0.00 0.00 0.00 0.00 0.00 0.00 0.00 0.00 0.00 0.00 0.00 0.00 0.00 0.00 0.00 0.00 0.00 0.00 0.00 0.00 0.00 0.00 0.00 0.00 0.00 0.00
0.36 0.34 0.33 0.25 0.12 0.07 0.06 0.04 0.02 0.01 0.01 0.00 0.00 0.00 0.00 0.00 0.00 0.00 0.00 0.00 0.00 0.00 0.00 0.00 0.00 0.00 0.00 0.00 0.00 0.00 0.00 0.00 0.00 0.00 0.00 0.00 0.00 0.00 0.00 0.00 0.00 0.00 0.00